Location: Riverside Cemetery
(38.3047°N, 99.7773°W)
Time: 19:14:09
(UTC+00:00)

Cosmos 2026 Rocket - Pass Details

Date: 19 September 2020
Orbit: 940 x 1000 km, 82.9° (Epoch: 21 October)

Event Time Altitude Azimuth Distance (km) Brightness Sun altitude
Rises 02:57:00 0° 357° (N) 3,717 7.4 -26.6°
Reaches altitude 10° 02:59:34 10° 1° (N) 2,769 6.6 -27.0°
Enters shadow 03:05:12 57° 53° (NE) 1,163 4.2 -28.0°
